User: anonymous   Login
Location: ????????
(55.6189°N, 38.3031°E)
Time: 17:26:02
(UTC+00:00)
Language:

SL-16 R/B - Orbit

View from above orbital plane
View from above orbital plane
View from above satellite
View from above satellite

Ground track
Ground track

The orbit data is extracted from the following two-line orbital elements,

1 28353U 04021B   21018.86472233 -.00000285  00000-0 -12439-3 0  9994
2 28353  70.9984 207.5445 0005263 341.1378  18.9548 14.14235373857592
Epoch (UTC): 18 January 2021 20:45:12
Eccentricity: 0.0005263
inclination: 70.9984°
perigee height: 841 km
apogee height: 849 km
right ascension of ascending node: 207.5445°
argument of perigee: 341.1378°
revolutions per day: 14.14235373
mean anomaly at epoch: 18.9548°
orbit number at epoch: 85759

The dashed part of the orbit path shows where the satellite is in the earth's shadow,  

DLR